sat.trackr.live / text

‹ back to catalog

STARLINK-34841

NORAD 65208 · 2025-176L

PAYLOAD ACTIVE UNKNOWN

§ Identity

Operator
Country
US
Launch date
2025-08-14
Launch site
AFETR
Launch vehicle
Mass (kg)
RCS (m²)

Purposes: comms

External: N2YO · Heavens-Above · Gunter

§ Orbital elements

Epoch: 2026-09-20T11:21:32.954112Z

Period
93.85 min
Inclination
53.1596°
Eccentricity
0.0001132
Mean motion
15.34402729 rev/d
Perigee alt
461.9 km
Apogee alt
463.5 km
Semi-major
6,840.8 km
B*
6.0058e-4
RAAN
323.6617°
Arg perigee
93.6625°
Mean anomaly
266.4508°
Rev number
6,300

§ Raw data

STARLINK-348411 65208U 25176L   26263.47329808  .00019971  00000+0  60058-3 0  99902 65208  53.1596 323.6617 0001132  93.6625 266.4508 15.34402729 63005

JSON: /api/v1/satellites/65208 · /tle

For live sub-satellite position, see the globe view (requires WebGL).

§ Visibility from observer

Set your observer location to see the next 7 days of passes ≥ 10°. The values pass through the URL so the page stays shareable.

No JS? Fill the form by hand. The geolocation button needs JavaScript.